Location: Newark
(45.4422°N, 16.2769°E)
Time: 14:13:49
(UTC+00:00)

Transit 2A - All Passes

Search period start: 06 December 2019 00:00
Search period end: 16 December 2019 00:00
Orbit: 602 x 957 km, 66.7° (Epoch: 05 December)

Date Brightness Start Highest point End Pass type
(mag) Time Alt. Az. Time Alt. Az. Time Alt. Az.
06 Dec - 05:43:19 10° SSE 05:46:27 17° ESE 05:49:27 10° ENE visible
06 Dec - 07:24:25 10° SW 07:29:11 61° NW 07:33:38 10° NNE daylight
06 Dec - 09:11:24 10° WNW 09:13:12 12° NW 09:14:59 10° N daylight
06 Dec - 14:25:44 10° NNW 14:29:25 26° NE 14:33:13 10° ESE daylight
06 Dec - 16:08:30 10° NW 16:12:41 43° WSW 16:17:07 10° S visible
07 Dec - 05:11:07 10° ESE 05:12:32 11° ESE 05:13:54 10° E visible
07 Dec - 06:50:12 10° SSW 06:55:03 90° W 06:59:34 10° NNE daylight
07 Dec - 08:35:58 10° WNW 08:38:46 16° NW 08:41:32 10° N daylight
07 Dec - 13:51:56 10° N 13:55:06 19° NE 13:58:21 10° E daylight
07 Dec - 15:34:15 10° NW 15:38:37 66° WSW 15:43:15 10° SSE visible
08 Dec - 06:16:11 10° SSW 06:20:57 61° ESE 06:25:23 10° NE daylight
08 Dec - 08:00:54 10° W 08:04:25 21° NW 08:07:49 10° N daylight
08 Dec - 13:18:17 10° N 13:20:43 14° NE 13:23:12 10° ENE daylight
08 Dec - 15:00:06 10° NNW 15:04:31 83° NE 15:09:11 10° SE daylight
08 Dec - 16:45:29 10° W 16:47:03 12° WSW 16:48:39 10° SW visible
09 Dec - 05:42:22 10° S 05:46:54 40° ESE 05:51:08 10° NE visible
09 Dec - 07:26:04 10° WSW 07:30:07 28° NW 07:33:59 10° NNE daylight
09 Dec - 12:45:02 10° NNE 12:46:17 11° NNE 12:47:32 10° NE daylight
09 Dec - 14:26:03 10° NNW 14:30:22 56° NE 14:34:56 10° SE daylight
09 Dec - 16:10:06 10° WNW 16:13:08 18° WSW 16:16:16 10° SSW visible
10 Dec - 05:08:49 10° S 05:12:53 27° ESE 05:16:43 10° NE visible
10 Dec - 06:51:26 10° WSW 06:55:53 39° NW 07:00:04 10° NNE daylight
10 Dec - 13:52:03 10° NNW 13:56:10 38° NE 14:00:30 10° ESE daylight
10 Dec - 15:35:25 10° NW 15:39:09 27° WSW 15:43:05 10° S visible
11 Dec - 04:35:37 10° SSE 04:38:54 18° ESE 04:42:03 10° ENE visible
11 Dec - 06:17:00 10° SW 06:21:41 56° NW 06:26:04 10° NNE daylight
11 Dec - 08:04:21 10° NW 08:05:45 11° NNW 08:07:10 10° NNW daylight
11 Dec - 13:18:08 10° NNW 13:21:56 28° NE 13:25:52 10° ESE daylight
11 Dec - 15:00:59 10° NW 15:05:08 40° WSW 15:09:33 10° S daylight
12 Dec - 04:03:09 10° SE 04:04:58 12° ESE 04:06:45 10° E visible
12 Dec - 05:42:44 10° SW 05:47:32 83° NW 05:52:00 10° NNE visible
12 Dec - 07:28:44 10° WNW 07:31:19 15° NW 07:33:51 10° N daylight
12 Dec - 12:44:18 10° N 12:47:37 20° NE 12:51:03 10° E daylight
12 Dec - 14:26:42 10° NW 14:31:05 61° WSW 14:35:44 10° SSE daylight
13 Dec - 05:08:41 10° SSW 05:13:25 67° ESE 05:17:52 10° NE visible
13 Dec - 06:53:36 10° W 06:56:57 19° NW 07:00:11 10° N daylight
13 Dec - 12:10:37 10° N 12:13:16 15° NE 12:15:58 10° ENE daylight
13 Dec - 13:52:33 10° NNW 13:57:00 90° ENE 14:01:43 10° SSE daylight
13 Dec - 15:38:26 10° W 15:39:29 11° WSW 15:40:33 10° WSW daylight
14 Dec - 04:34:49 10° S 04:39:22 44° ESE 04:43:37 10° NE visible
14 Dec - 06:18:44 10° WSW 06:22:38 26° NW 06:26:22 10° NNE daylight
14 Dec - 11:37:12 10° NNE 11:38:50 12° NNE 11:40:29 10° NE daylight
14 Dec - 13:18:28 10° NNW 13:22:51 61° NE 13:27:30 10° SE daylight
14 Dec - 15:02:42 10° WNW 15:05:35 17° WSW 15:08:33 10° SSW daylight
15 Dec - 04:01:13 10° S 04:05:20 29° ESE 04:09:14 10° NE visible
15 Dec - 05:44:03 10° WSW 05:48:22 36° NW 05:52:29 10° NNE visible
15 Dec - 12:44:27 10° NNW 12:48:41 42° NE 12:53:07 10° ESE daylight
15 Dec - 14:27:57 10° WNW 14:31:37 25° WSW 14:35:28 10° SSW daylight
